Wind_Speed
24 25 25 26 27 27 27 26 25 25 23 24 25 24 23 22 24 21 9 15 9 7 10 15 11 13 14 16 15 14 6 12 14 11 9 13 7 12 10 7 6 9 9 30 34
24 25 25 26 28 28 29 28 27 25 24 25 23 24 20 19 21 6 10 15 13 13 17 19 19 14 9 8 11 8 5 15 5 3 0 3 5 10 3 0 5 6 11 30 35
23 24 26 28 29 29 30 30 28 26 24 22 21 19 17 14 8 9 10 13 12 15 18 14 14 16 14 15 12 10 5 9 4 9 8 4 2 4 6 1 4 12 9 35 37
23 25 27 30 31 31 31 28 27 26 23 20 18 17 10 9 2 11 12 12 10 18 17 15 10 8 6 12 17 9 12 13 6 9 5 2 5 6 8 3 7 19 15 35 39
23 26 29 31 33 33 31 29 27 25 22 15 14 12 8 5 5 10 10 14 15 20 15 14 7 7 5 4 13 14 7 8 14 12 8 4 1 6 11 14 14 17 17 33 39
24 27 29 31 33 32 31 28 27 28 15 12 10 5 5 4 12 11 15 21 18 13 11 9 5 9 8 4 2 7 8 12 12 7 7 7 3 2 13 10 9 11 4 20 32
25 28 31 32 32 31 33 31 29 23 6 7 7 6 3 7 13 14 16 15 14 11 13 11 7 6 8 6 10 6 6 5 7 11 4 7 6 7 16 5 3 6 11 1 23
27 30 32 33 30 30 34 30 25 7 13 4 6 8 4 12 18 14 15 16 11 10 7 6 6 5 2 9 2 2 2 3 3 9 7 12 5 8 17 11 5 11 8 11 7
27 31 31 31 29 30 33 28 16 8 8 2 6 5 4 17 22 16 20 19 14 11 6 4 4 3 3 0 2 2 2 4 2 7 6 6 2 8 11 13 9 10 10 9 2
28 32 31 30 28 32 31 26 9 10 6 4 11 4 13 22 27 20 20 12 9 6 4 3 4 3 3 2 3 2 1 1 3 4 8 7 2 6 16 17 19 15 13 5 7
28 32 29 27 27 32 31 28 9 2 11 6 6 4 17 23 20 18 17 19 5 2 3 1 2 3 4 3 4 6 4 3 3 2 4 6 8 6 10 10 11 19 9 2 9
29 32 28 25 24 28 28 23 9 5 7 8 10 12 24 19 10 19 19 10 5 3 1 3 3 6 5 2 0 3 3 3 5 3 2 3 7 9 10 12 20 18 10 8 8
29 31 27 25 20 25 25 20 9 1 2 11 12 13 23 16 7 16 23 13 2 3 3 3 5 3 4 2 2 5 4 3 3 7 2 3 3 4 5 7 20 25 17 12 11
29 30 25 26 14 23 20 16 6 2 5 9 11 10 21 20 4 15 25 5 4 4 6 4 4 5 2 3 4 3 7 7 5 3 1 2 3 4 6 8 12 21 25 15 15
28 27 22 25 20 23 22 12 2 2 5 17 8 12 22 14 11 18 20 6 3 4 3 4 5 5 3 0 5 5 3 7 4 4 4 4 3 5 5 6 10 14 20 16 19
27 23 17 24 22 21 20 9 1 6 3 7 8 12 12 13 11 18 12 21 2 4 4 6 7 2 3 5 2 3 3 4 6 3 1 5 3 4 5 10 10 13 24 27 28
26 18 16 25 24 19 14 4 5 7 5 9 7 9 8 9 8 9 6 10 6 8 8 7 5 3 1 3 5 5 1 3 2 2 4 3 3 5 3 3 10 15 21 26 31
25 13 18 20 19 17 10 6 10 4 3 6 7 9 5 11 6 8 6 5 5 5 2 4 7 6 5 3 2 2 2 4 6 4 3 2 4 1 5 11 14 21 33 34 33
22 6 23 21 18 11 3 6 6 2 4 5 8 4 5 5 2 8 5 4 2 3 2 4 5 4 3 3 1 3 2 2 5 3 3 3 4 3 11 13 12 13 21 27 35
16 4 26 19 15 8 7 4 1 2 5 2 4 3 4 6 8 6 3 3 5 4 4 4 6 3 5 3 3 2 0 1 2 3 2 3 3 4 14 14 11 5 18 28 32
9 2 23 12 7 14 4 2 2 12 11 3 3 4 4 3 2 3 5 3 4 7 5 2 2 6 5 3 3 3 3 2 1 2 3 4 1 6 8 11 11 11 13 23 27
4 4 22 8 8 5 2 3 6 7 11 4 4 4 4 5 4 2 3 3 11 13 4 3 3 4 4 7 4 2 1 0 1 4 2 3 1 3 7 10 17 20 21 18 24
4 4 20 7 4 2 3 4 3 7 5 5 5 4 3 4 4 3 5 9 13 10 3 5 2 5 5 3 2 5 4 2 4 1 2 3 1 9 12 14 24 24 21 19 25
2 2 8 14 8 4 2 3 5 9 2 5 2 3 5 3 1 6 8 6 26 11 7 5 3 4 3 5 2 4 5 4 3 3 2 1 2 12 15 16 22 26 30 13 22
4 3 3 1 5 5 3 2 4 5 3 6 2 6 4 3 5 2 3 11 7 6 8 3 3 3 10 15 14 12 3 7 3 3 3 2 4 9 10 12 17 22 25 21 9
3 4 4 3 3 3 5 3 2 4 2 4 2 7 2 4 6 9 9 1 6 5 6 5 4 4 4 6 11 13 15 7 5 7 4 6 5 5 8 14 22 25 27 25 20
6 8 4 2 3 4 2 2 3 4 5 7 7 4 4 6 13 24 23 22 19 6 4 2 3 4 4 7 1 6 11 10 4 9 5 3 4 9 7 13 20 24 24 24 20
Wind_Direction
2 1 360 358 354 350 345 342 335 333 332 330 326 324 319 320 313 319 336 351 326 330 6 339 293 269 260 255 237 228 229 231 224 230 213 190 200 222 217 288 242 205 196 183 169
3 0 359 359 357 354 347 341 336 332 331 330 329 318 320 318 322 13 15 350 333 322 338 331 304 280 254 248 233 217 223 229 217 219 126 338 354 8 336 197 333 312 216 176 173
3 1 360 0 357 354 348 341 338 333 332 330 326 332 327 321 348 18 1 345 336 328 329 309 285 280 241 226 230 220 235 234 262 239 228 347 301 305 333 150 56 332 272 176 181
5 3 1 359 355 353 349 345 339 335 333 331 334 329 339 342 66 1 349 348 331 326 336 330 295 268 204 215 231 238 226 247 231 248 231 228 355 269 259 170 336 329 216 178 176
6 1 359 356 354 353 350 346 341 336 337 335 338 336 5 347 355 352 341 328 329 330 326 346 327 341 276 238 224 242 256 242 246 261 236 144 290 267 288 273 278 336 191 187 182
5 0 356 354 351 351 348 347 338 329 330 338 344 351 9 335 358 344 340 320 321 327 333 334 315 306 299 303 238 339 315 248 258 264 221 190 192 108 255 285 294 324 79 185 187
1 358 354 353 349 349 348 348 338 332 1 340 0 358 340 359 343 334 343 349 321 305 317 324 311 304 313 300 359 302 331 294 220 233 215 130 276 238 243 232 307 315 13 122 181
358 357 353 351 347 348 350 350 344 26 14 348 11 350 304 342 346 359 337 337 321 324 327 320 314 328 241 320 348 305 239 208 230 168 173 146 233 186 219 199 276 288 341 7 196
356 355 352 351 348 349 353 358 349 348 347 32 340 348 1 359 353 356 345 335 321 303 331 301 328 338 328 188 29 347 221 178 330 192 139 176 166 205 199 188 217 262 282 351 292
355 354 352 351 349 350 357 5 52 67 88 38 13 1 354 339 347 353 345 329 311 295 301 348 358 353 340 215 202 200 285 64 169 11 187 174 202 157 178 185 179 216 242 341 351
353 352 353 351 350 351 358 19 61 43 42 40 327 298 325 341 347 360 353 328 309 282 318 301 342 257 240 267 310 341 345 78 322 280 351 196 187 167 167 176 172 202 224 279 345
351 349 354 352 350 356 2 32 33 320 321 8 349 335 344 338 324 4 347 345 1 321 356 353 268 256 233 211 336 289 293 280 284 310 250 278 218 192 158 188 181 173 181 220 272
348 348 352 353 354 358 11 11 6 341 298 356 357 3 352 345 326 357 357 343 354 334 330 241 271 269 222 114 193 215 233 244 236 345 282 304 308 175 211 162 167 173 177 199 257
345 348 352 359 358 1 10 3 8 88 66 348 345 10 355 353 358 339 3 343 350 322 322 245 306 345 343 184 150 194 224 226 221 221 190 333 243 249 196 178 175 175 170 175 248
345 347 354 3 2 358 346 348 357 317 38 324 329 334 353 23 322 341 7 10 349 310 5 276 338 358 337 18 169 232 207 177 158 120 3 319 71 281 155 189 193 183 166 169 208
343 347 353 358 1 348 343 346 205 42 295 329 333 333 353 352 348 349 15 28 4 355 347 264 286 270 255 307 261 91 16 36 121 92 347 249 137 267 201 211 188 169 184 173 203
342 348 356 356 353 347 346 341 37 83 346 333 328 334 326 340 333 7 358 28 40 9 0 323 319 300 18 327 7 75 93 15 98 137 207 235 120 258 252 227 175 177 176 187 207
340 354 2 359 352 345 355 54 62 276 347 295 313 314 2 2 345 336 11 19 37 59 339 358 335 12 6 15 299 169 173 160 164 174 174 174 212 231 340 326 216 171 185 194 189
339 341 8 6 359 354 23 49 184 247 301 299 322 355 335 6 350 357 19 347 46 58 70 360 282 325 287 240 227 262 265 158 103 278 79 253 284 236 4 25 13 158 167 182 198
341 346 12 2 359 21 67 123 197 266 317 342 357 32 334 329 9 30 347 339 332 29 184 268 291 309 312 313 233 140 209 28 24 141 121 300 34 324 342 354 358 28 168 186 195
342 31 359 359 24 55 94 221 335 358 10 348 316 309 347 317 297 302 274 317 338 333 348 245 202 295 324 33 19 11 1 355 128 147 158 145 291 344 322 340 347 343 289 193 188
13 47 0 31 53 35 59 346 355 342 3 349 360 51 356 322 303 287 279 234 17 346 333 271 290 293 287 301 290 269 309 66 116 298 212 163 202 330 354 354 7 346 320 211 189
66 44 31 75 86 348 325 349 19 10 354 355 1 37 30 307 340 260 337 310 344 339 344 328 332 327 350 12 67 38 345 0 316 2 328 102 156 14 13 9 8 352 347 197 185
75 47 47 53 65 109 77 1 353 347 279 342 298 56 0 345 299 300 307 311 328 316 325 351 270 224 233 237 323 319 322 2 344 12 335 30 40 359 4 6 352 352 360 183 176
63 69 80 351 17 75 77 334 349 347 319 348 329 3 348 325 311 234 291 319 304 343 0 45 276 242 268 279 271 253 285 319 313 232 71 11 70 16 358 354 345 359 3 39 105
88 124 102 90 70 60 358 330 333 308 262 292 297 311 249 190 197 283 299 255 254 336 9 343 286 326 300 353 49 69 23 341 3 15 71 92 76 21 346 17 13 11 1 10 27
102 128 147 11 78 84 237 248 292 333 277 257 305 301 269 255 288 279 269 260 253 293 334 308 307 346 281 338 353 25 2 11 69 28 339 34 18 345 9 25 18 4 4 4 14
Height
1527 1523 1519 1515 1511 1508 1504 1500 1496 1492 1488 1484 1481 1478 1474 1471 1467 1463 1461 1461 1460 1459 1457 1457 1456 1457 1457 1456 1455 1456 1453 1447 1448 1445 1442 1439 1442 1443 1446 1447 1445 1443 1442 1442 1451
1526 1523 1519 1515 1510 1505 1501 1497 1493 1489 1484 1481 1478 1474 1471 1469 1464 1462 1462 1460 1461 1458 1458 1456 1454 1455 1454 1452 1453 1453 1446 1442 1441 1444 1441 1439 1442 1444 1444 1446 1444 1443 1443 1444 1450
1526 1522 1519 1514 1509 1505 1500 1495 1491 1486 1482 1479 1476 1472 1470 1467 1465 1463 1463 1462 1462 1460 1457 1454 1452 1452 1450 1450 1447 1446 1443 1443 1442 1442 1443 1443 1444 1445 1445 1446 1447 1447 1446 1444 1448
1525 1521 1517 1512 1507 1503 1498 1493 1488 1484 1481 1477 1474 1471 1468 1467 1469 1464 1463 1462 1461 1459 1456 1452 1450 1448 1444 1444 1444 1445 1441 1442 1441 1442 1441 1444 1445 1447 1445 1446 1445 1444 1442 1445 1447
1525 1521 1516 1511 1506 1501 1496 1492 1486 1482 1478 1475 1473 1470 1469 1469 1467 1464 1462 1461 1460 1458 1455 1452 1451 1449 1442 1440 1442 1444 1441 1440 1440 1440 1441 1443 1446 1445 1442 1443 1444 1443 1441 1446 1447
1524 1520 1514 1510 1505 1500 1494 1489 1484 1478 1475 1473 1471 1470 1470 1471 1466 1464 1462 1460 1459 1456 1454 1453 1451 1450 1447 1441 1441 1441 1441 1439 1439 1440 1439 1441 1445 1444 1442 1442 1443 1446 1445 1446 1450
1524 1520 1514 1508 1503 1498 1493 1488 1481 1474 1473 1472 1472 1471 1471 1471 1467 1464 1462 1459 1457 1455 1453 1453 1451 1450 1450 1442 1442 1441 1443 1438 1436 1437 1440 1441 1442 1446 1444 1448 1445 1448 1448 1447 1450
1522 1518 1513 1508 1502 1497 1492 1487 1480 1475 1474 1473 1473 1470 1469 1468 1465 1463 1461 1459 1456 1454 1454 1452 1450 1449 1448 1446 1444 1443 1443 1440 1433 1433 1436 1440 1445 1443 1443 1446 1448 1447 1449 1450 1450
1522 1516 1511 1505 1500 1495 1489 1485 1479 1477 1476 1475 1474 1472 1471 1469 1466 1463 1460 1458 1456 1454 1454 1452 1451 1450 1449 1448 1448 1447 1440 1440 1433 1431 1434 1436 1439 1437 1441 1440 1445 1447 1450 1451 1452
1520 1516 1510 1504 1499 1494 1489 1485 1480 1479 1478 1477 1476 1476 1473 1470 1465 1463 1460 1457 1455 1453 1454 1453 1452 1453 1451 1447 1457 1449 1445 1438 1436 1433 1432 1438 1438 1437 1435 1439 1443 1449 1453 1452 1454
1520 1515 1509 1503 1498 1493 1488 1483 1483 1482 1479 1482 1482 1480 1476 1471 1467 1464 1461 1457 1455 1454 1455 1454 1456 1457 1451 1449 1450 1451 1446 1442 1439 1434 1435 1433 1437 1434 1436 1442 1443 1447 1445 1451 1457
1520 1514 1508 1504 1499 1494 1490 1487 1491 1493 1486 1483 1482 1479 1476 1472 1469 1465 1462 1458 1456 1458 1456 1457 1456 1448 1447 1448 1451 1451 1452 1449 1441 1436 1435 1429 1432 1431 1434 1439 1442 1446 1449 1454 1458
1519 1513 1507 1503 1499 1496 1493 1492 1490 1490 1490 1484 1482 1480 1477 1473 1470 1467 1463 1459 1457 1457 1457 1459 1450 1446 1446 1449 1450 1447 1446 1449 1443 1437 1434 1432 1429 1428 1432 1432 1438 1442 1449 1453 1456
1518 1512 1507 1504 1500 1496 1493 1492 1491 1491 1503 1492 1485 1484 1480 1472 1471 1470 1465 1463 1459 1461 1457 1456 1449 1447 1444 1446 1447 1449 1442 1443 1445 1445 1444 1434 1444 1429 1427 1429 1434 1439 1439 1446 1452
1516 1511 1506 1501 1502 1498 1498 1493 1491 1493 1533 1497 1491 1487 1482 1483 1479 1472 1469 1461 1463 1463 1463 1457 1452 1452 1449 1444 1445 1446 1441 1443 1443 1450 1450 1437 1445 1429 1427 1429 1431 1432 1435 1442 1450
1515 1509 1505 1503 1500 1499 1496 1494 1493 1511 1550 1504 1498 1494 1488 1483 1480 1475 1473 1466 1465 1464 1463 1459 1452 1452 1450 1446 1443 1442 1446 1446 1440 1450 1464 1450 1445 1437 1428 1420 1426 1431 1436 1440 1449
1515 1510 1504 1500 1497 1495 1494 1495 1512 1533 1512 1508 1504 1499 1495 1492 1484 1481 1483 1480 1486 1491 1489 1466 1454 1450 1450 1448 1445 1449 1451 1469 1455 1454 1473 1441 1448 1430 1424 1420 1420 1425 1431 1440 1445
1514 1511 1507 1501 1499 1495 1494 1499 1535 1521 1514 1509 1506 1500 1499 1498 1492 1490 1485 1489 1487 1495 1504 1491 1474 1454 1452 1453 1454 1451 1452 1473 1492 1470 1449 1442 1457 1427 1423 1418 1415 1420 1425 1430 1437
1512 1510 1506 1501 1499 1496 1496 1529 1537 1521 1517 1514 1508 1505 1503 1500 1507 1499 1497 1496 1492 1494 1505 1507 1473 1456 1452 1452 1452 1455 1454 1452 1476 1468 1456 1449 1430 1424 1424 1424 1421 1421 1425 1426 1431
1510 1507 1506 1503 1500 1498 1504 1527 1522 1518 1515 1514 1516 1511 1509 1506 1510 1509 1508 1495 1496 1491 1491 1494 1486 1459 1453 1449 1449 1449 1449 1452 1465 1466 1463 1449 1439 1443 1435 1432 1429 1429 1425 1430 1436
1509 1507 1508 1503 1502 1502 1524 1531 1522 1520 1517 1518 1517 1516 1515 1518 1512 1513 1511 1496 1495 1493 1489 1489 1489 1467 1457 1453 1458 1459 1466 1454 1457 1457 1464 1448 1453 1448 1443 1437 1434 1430 1428 1430 1433
1509 1510 1509 1505 1508 1519 1529 1524 1524 1522 1520 1519 1517 1517 1519 1514 1516 1517 1509 1502 1497 1496 1498 1489 1485 1476 1463 1456 1457 1456 1451 1451 1452 1457 1462 1457 1461 1451 1444 1440 1434 1432 1429 1427 1431
1511 1513 1513 1509 1528 1534 1526 1525 1524 1524 1524 1522 1521 1518 1518 1517 1525 1512 1505 1499 1498 1497 1496 1492 1497 1492 1462 1458 1454 1460 1456 1455 1450 1448 1451 1465 1452 1447 1445 1440 1440 1436 1428 1430 1433
1514 1517 1516 1518 1523 1526 1530 1528 1526 1525 1524 1524 1522 1516 1516 1516 1514 1515 1510 1501 1499 1497 1493 1491 1490 1489 1483 1472 1474 1480 1469 1458 1456 1458 1444 1453 1446 1452 1450 1450 1447 1444 1433 1431 1434
1516 1521 1523 1531 1528 1529 1529 1531 1528 1528 1525 1523 1522 1520 1519 1530 1520 1519 1511 1506 1499 1497 1495 1495 1493 1489 1476 1469 1466 1464 1476 1465 1461 1457 1454 1454 1455 1462 1462 1459 1456 1449 1443 1437 1438
1516 1519 1525 1527 1527 1530 1531 1532 1530 1530 1527 1523 1522 1518 1516 1523 1517 1513 1511 1512 1507 1499 1499 1498 1491 1484 1479 1465 1462 1469 1470 1462 1460 1460 1455 1458 1464 1470 1467 1464 1459 1455 1450 1444 1441
1518 1520 1522 1526 1528 1532 1533 1532 1532 1530 1525 1524 1522 1518 1514 1510 1508 1504 1503 1504 1503 1505 1503 1503 1495 1492 1486 1468 1460 1470 1484 1478 1476 1477 1472 1465 1475 1473 1469 1464 1464 1462 1458 1453 1447